This is the latest recevied weather packets stored in our database for station/object DG4CB-13. If no packets are shown the sender has not sent any weather packets the latest 10 day(s).
| Time | Temp. | Humidity | Pressure | Rain* | Wind** | Luminosity | Snow |
|---|---|---|---|---|---|---|---|
| 1777925400 | 15° C | 76% | 1011.6 hPa | - | - | - | - |
| 1777924800 | 15° C | 75% | 1011.5 hPa | - | - | - | - |
| 1777924200 | 15° C | 75% | 1011.6 hPa | - | - | - | - |
| 1777923600 | 15° C | 74% | 1011.5 hPa | - | - | - | - |
| 1777923000 | 15° C | 75% | 1011.5 hPa | - | - | - | - |
| 1777922400 | 15.56° C | 75% | 1011.4 hPa | - | - | - | - |
| 1777921800 | 15.56° C | 72% | 1011.3 hPa | - | - | - | - |
| 1777921199 | 15.56° C | 72% | 1011.2 hPa | - | - | - | - |
| 1777920599 | 15.56° C | 71% | 1011.2 hPa | - | - | - | - |
| 1777920000 | 15.56° C | 71% | 1011.1 hPa | - | - | - | - |
| 1777919399 | 16.11° C | 71% | 1011.2 hPa | - | - | - | - |
| 1777918800 | 16.11° C | 72% | 1011.1 hPa | - | - | - | - |
| 1777918199 | 16.11° C | 72% | 1011.2 hPa | - | - | - | - |
| 1777917599 | 16.11° C | 72% | 1011.2 hPa | - | - | - | - |
| 1777916999 | 16.11° C | 72% | 1011.2 hPa | - | - | - | - |
| 1777916399 | 16.11° C | 71% | 1011.2 hPa | - | - | - | - |
| 1777915799 | 16.67° C | 72% | 1011.2 hPa | - | - | - | - |
| 1777915199 | 16.67° C | 72% | 1011.2 hPa | - | - | - | - |
| 1777914599 | 16.67° C | 72% | 1011.2 hPa | - | - | - | - |
| 1777914000 | 16.67° C | 74% | 1011.3 hPa | - | - | - | - |
| 1777913399 | 16.67° C | 74% | 1011.4 hPa | - | - | - | - |
| 1777912799 | 16.67° C | 74% | 1011.5 hPa | - | - | - | - |
| 1777912199 | 16.67° C | 74% | 1011.4 hPa | - | - | - | - |
| 1777911599 | 16.67° C | 73% | 1011.4 hPa | - | - | - | - |
| 1777910999 | 16.67° C | 71% | 1011.6 hPa | - | - | - | - |
* Rain since midnight (hover to see other rain measurements)
** Current wind speed in m/s (hover to see current wind gust speed)